IRIDIUM 106 1 41917U 17003A 25351.55780398 -.00000011 00000+0 -10955-4 0 9991 2 41917 86.3993 164.4424 0002275 98.0709 262.0745 14.34217554467173 IRIDIUM 103 1 41918U 17003B 25351.89396291 .00000082 00000+0 22216-4 0 9993 2 41918 86.3987 164.2023 0001676 100.8851 259.2533 14.34214620467246 IRIDIUM 109 1 41919U 17003C 25351.90030701 .00000048 00000+0 99134-5 0 9993 2 41919 86.3989 164.2562 0001928 93.6299 266.5117 14.34220312467213 IRIDIUM 102 1 41920U 17003D 25351.86858919 -.00000041 00000+0 -21816-4 0 9995 2 41920 86.3991 164.1970 0001895 88.6982 271.4430 14.34216947467296 IRIDIUM 105 1 41921U 17003E 25351.83932781 .00000290 00000+0 96343-4 0 9994 2 41921 86.3981 132.7013 0001930 95.7630 264.3786 14.34215190469144 IRIDIUM 104 1 41922U 17003F 25351.74173594 .00000025 00000+0 17041-5 0 9999 2 41922 86.3984 164.2894 0001656 89.4840 270.6546 14.34218070467268 IRIDIUM 114 1 41923U 17003G 25351.88760926 .00000005 00000+0 -53935-5 0 9997 2 41923 86.3990 164.2126 0001698 92.9628 267.1762 14.34216596467265 IRIDIUM 108 1 41924U 17003H 25351.77637265 .00000275 00000+0 91256-4 0 9990 2 41924 86.3976 132.6173 0002092 89.9020 270.2415 14.34217841469101 IRIDIUM 112 1 41925U 17003J 25351.87493149 .00000038 00000+0 65664-5 0 9995 2 41925 86.3983 164.0685 0001848 88.1635 271.9772 14.34217580467289 IRIDIUM 111 1 41926U 17003K 25351.86224776 -.00000002 00000+0 -76483-5 0 9997 2 41926 86.3990 164.1404 0001865 94.2028 265.9381 14.34217603467264 IRIDIUM 113 1 42803U 17039A 25351.63290735 .00000045 00000+0 91672-5 0 9996 2 42803 86.3971 38.0500 0001950 94.0114 266.1305 14.34217773445165 IRIDIUM 123 1 42804U 17039B 25351.74415602 .00000190 00000+0 60701-4 0 9990 2 42804 86.3965 69.4875 0002155 105.0123 255.1311 14.34217418443948 IRIDIUM 120 1 42805U 17039C 25351.83587137 .00000214 00000+0 69271-4 0 9992 2 42805 86.3960 37.7712 0002517 95.5836 264.5647 14.34218342445189 IRIDIUM 115 1 42806U 17039D 25351.88776675 .00000327 00000+0 91140-4 0 9990 2 42806 86.4495 37.8532 0002577 104.5498 255.5989 14.43277750448119 IRIDIUM 118 1 42807U 17039E 25351.77586748 .00000005 00000+0 -53390-5 0 9999 2 42807 86.3961 69.4729 0001892 96.8974 263.2437 14.34215258443942 IRIDIUM 117 1 42808U 17039F 25351.72512668 .00000249 00000+0 82004-4 0 9997 2 42808 86.3965 69.4536 0002085 102.5422 257.6007 14.34218469443960 IRIDIUM 126 1 42809U 17039G 25351.75049775 .00000024 00000+0 13552-5 0 9999 2 42809 86.3966 69.4915 0001950 100.2096 259.9319 14.34217387443942 IRIDIUM 124 1 42810U 17039H 25351.75224800 .00000344 00000+0 96163-4 0 9998 2 42810 86.4490 6.2114 0002353 96.8749 263.2720 14.43280903448943 IRIDIUM 128 1 42811U 17039J 25351.81100456 .00000148 00000+0 45671-4 0 9996 2 42811 86.3968 101.0003 0002370 97.8781 262.2684 14.34218118443986 IRIDIUM 121 1 42812U 17039K 25351.76952585 .00000264 00000+0 87382-4 0 9993 2 42812 86.3966 69.5097 0002216 94.6819 265.4630 14.34218307443821 IRIDIUM 133 1 42955U 17061A 25351.77295557 .00000259 00000+0 85486-4 0 9993 2 42955 86.3971 101.1295 0002123 97.6071 262.5366 14.34220020428774 IRIDIUM 100 1 42956U 17061B 25351.76660562 .00000018 00000+0 -65161-6 0 9999 2 42956 86.3967 101.0549 0002126 98.9658 261.1779 14.34216179428772 IRIDIUM 122 1 42957U 17061C 25351.80466213 .00000267 00000+0 88410-4 0 9997 2 42957 86.3970 101.0389 0001973 98.8101 261.3319 14.34216350428784 IRIDIUM 129 1 42958U 17061D 25351.76026278 .00000080 00000+0 21527-4 0 9995 2 42958 86.3970 101.1225 0001760 89.7573 270.3824 14.34217701428794 IRIDIUM 119 1 42959U 17061E 25351.79831968 .00000269 00000+0 89017-4 0 9996 2 42959 86.3970 101.1015 0001817 97.4538 262.6864 14.34217535428818 IRIDIUM 107 1 42960U 17061F 25351.74757829 .00000197 00000+0 63340-4 0 9997 2 42960 86.3973 101.1430 0002104 107.6216 252.5210 14.34217977428814 IRIDIUM 132 1 42961U 17061G 25351.75392027 .00000131 00000+0 39811-4 0 9998 2 42961 86.3971 101.1212 0002061 100.1188 260.0241 14.34216275428817 IRIDIUM 136 1 42962U 17061H 25351.71586512 .00000164 00000+0 51633-4 0 9991 2 42962 86.3970 101.1427 0001917 98.8288 261.3125 14.34217667428820 IRIDIUM 139 1 42963U 17061J 25351.86174571 .00000172 00000+0 54364-4 0 9999 2 42963 86.3973 101.1408 0002096 100.1017 260.0416 14.34217434428853 IRIDIUM 125 1 42964U 17061K 25351.77927473 .00000265 00000+0 87643-4 0 9996 2 42964 86.3973 101.2330 0001755 111.5763 248.5620 14.34213663428852 IRIDIUM 135 1 43070U 17083A 25351.68364577 .00000225 00000+0 73454-4 0 9990 2 43070 86.3964 37.8773 0002149 92.9840 267.1601 14.34215638418132 IRIDIUM 138 1 43071U 17083B 25351.84855485 .00000125 00000+0 37530-4 0 9996 2 43071 86.3977 37.4757 0001777 94.3898 265.7501 14.34218079418146 IRIDIUM 116 1 43072U 17083C 25351.88661329 .00000015 00000+0 -15636-5 0 9996 2 43072 86.3954 37.7799 0002461 95.7833 264.3644 14.34216506418186 IRIDIUM 130 1 43073U 17083D 25351.85489966 .00000172 00000+0 54187-4 0 9995 2 43073 86.3972 38.0514 0002467 99.8077 260.3397 14.34219512418122 IRIDIUM 151 1 43074U 17083E 25351.82952818 .00000083 00000+0 22585-4 0 9992 2 43074 86.3967 37.8582 0002235 93.5559 266.5892 14.34217909418146 IRIDIUM 134 1 43075U 17083F 25351.86758657 .00000239 00000+0 78422-4 0 9996 2 43075 86.3966 37.8477 0002282 98.9709 261.1745 14.34215214418119 IRIDIUM 137 1 43076U 17083G 25351.67096487 .00000020 00000+0 42050-7 0 9991 2 43076 86.3963 38.0187 0002545 86.9927 273.1560 14.34217345418158 IRIDIUM 141 1 43077U 17083H 25351.66462053 .00000255 00000+0 83822-4 0 9996 2 43077 86.3964 37.8626 0002048 96.5184 263.6245 14.34218284418152 IRIDIUM 153 1 43078U 17083J 25351.75633512 .00000030 00000+0 37277-5 0 9992 2 43078 86.3966 6.3146 0001759 97.1526 262.9870 14.34217861419278 IRIDIUM 131 1 43079U 17083K 25351.65193555 .00000254 00000+0 83778-4 0 9994 2 43079 86.3964 38.0415 0002013 92.6926 267.4500 14.34217928418088 IRIDIUM 144 1 43249U 18030A 25351.55337428 -.00000027 00000+0 -16758-4 0 9998 2 43249 86.3964 6.3329 0002258 94.4347 265.7106 14.34217187404105 IRIDIUM 149 1 43250U 18030B 25351.76902126 .00000157 00000+0 48923-4 0 9997 2 43250 86.3965 6.2118 0002224 92.6045 267.5405 14.34218250404150 IRIDIUM 157 1 43251U 18030C 25351.57874533 .00000265 00000+0 87516-4 0 9998 2 43251 86.3967 6.3405 0002191 87.7780 272.3667 14.34217197404105 IRIDIUM 140 1 43252U 18030D 25351.80707763 .00000008 00000+0 -41231-5 0 9996 2 43252 86.3963 6.2579 0002178 94.8484 265.2961 14.34217137404199 IRIDIUM 145 1 43253U 18030E 25351.58508518 .00000217 00000+0 70556-4 0 9991 2 43253 86.3967 6.3234 0002564 93.9372 266.2117 14.34216015404095 IRIDIUM 146 1 43254U 18030F 25351.56606062 .00000227 00000+0 74023-4 0 9997 2 43254 86.3966 6.3443 0002393 92.5628 267.5842 14.34213779404101 IRIDIUM 148 1 43255U 18030G 25351.74365229 .00000050 00000+0 10617-4 0 9998 2 43255 86.3968 6.3104 0002258 89.0052 271.1403 14.34216854404167 IRIDIUM 142 1 43256U 18030H 25351.57240253 .00000077 00000+0 20291-4 0 9997 2 43256 86.3964 6.2776 0002589 94.2818 265.8674 14.34217619404107 IRIDIUM 150 1 43257U 18030J 25351.74999231 .00000255 00000+0 83968-4 0 9992 2 43257 86.3968 6.3137 0002349 93.4545 266.6919 14.34215807404159 IRIDIUM 143 1 43258U 18030K 25351.80073481 .00000254 00000+0 83620-4 0 9994 2 43258 86.3971 6.3779 0002491 93.9050 266.2430 14.34216693404091 IRIDIUM 161 1 43478U 18047C 25351.86884928 .00000116 00000+0 28408-4 0 9998 2 43478 86.4507 164.2384 0001860 87.3608 272.7806 14.43280521398982 IRIDIUM 152 1 43479U 18047D 25351.77345126 -.00000009 00000+0 -10313-4 0 9990 2 43479 86.3988 164.1389 0001712 91.4700 268.6692 14.34217279396484 IRIDIUM 147 1 43480U 18047E 25351.57048747 .00000028 00000+0 28713-5 0 9992 2 43480 86.3984 164.2256 0001997 87.1385 273.0040 14.34217467396455 IRIDIUM 110 1 43481U 18047F 25351.50705846 .00000258 00000+0 84901-4 0 9991 2 43481 86.3988 164.3390 0001555 81.1643 278.9729 14.34217608396434 IRIDIUM 162 1 43482U 18047G 25351.86254962 .00000123 00000+0 30701-4 0 9999 2 43482 86.4507 164.1344 0001871 99.5233 260.6180 14.43278862398978 IRIDIUM 160 1 43569U 18061A 25351.87151139 .00000269 00000+0 89120-4 0 9994 2 43569 86.3977 132.6082 0001879 87.8191 272.3220 14.34217303387385 IRIDIUM 166 1 43570U 18061B 25351.89688121 .00000223 00000+0 72697-4 0 9995 2 43570 86.3977 132.5505 0002137 91.9394 268.2046 14.34217849387414 IRIDIUM 158 1 43571U 18061C 25351.86516734 .00000278 00000+0 92287-4 0 9990 2 43571 86.3978 132.5737 0001863 99.5186 260.6221 14.34216238387378 IRIDIUM 165 1 43572U 18061D 25351.89053918 -.00000007 00000+0 -95770-5 0 9997 2 43572 86.3983 132.6062 0001957 91.5090 268.6330 14.34216560387408 IRIDIUM 155 1 43573U 18061E 25351.78271500 -.00000011 00000+0 -10894-4 0 9993 2 43573 86.3979 132.5293 0001982 100.0791 260.0629 14.34217071387350 IRIDIUM 154 1 43574U 18061F 25351.90322427 .00000131 00000+0 39890-4 0 9991 2 43574 86.3981 132.6034 0002020 92.4759 267.6668 14.34217307387426 IRIDIUM 163 1 43575U 18061G 25351.81442713 .00000143 00000+0 43861-4 0 9999 2 43575 86.3976 132.5615 0001859 95.6955 264.4453 14.34216828387386 IRIDIUM 156 1 43576U 18061H 25351.85882533 .00000239 00000+0 78275-4 0 9995 2 43576 86.3977 132.5500 0002141 99.3499 260.7939 14.34216357387385 IRIDIUM 164 1 43577U 18061J 25351.83980172 -.00000603 00000+0 -22251-3 0 9991 2 43577 86.3984 132.5954 0002080 89.2617 270.8817 14.34210857387420 IRIDIUM 159 1 43578U 18061K 25351.87785378 .00000175 00000+0 55315-4 0 9997 2 43578 86.3977 132.5200 0001976 90.7224 269.4198 14.34217186387395 IRIDIUM 180 1 43922U 19002A 25351.73781287 .00000099 00000+0 28441-4 0 9991 2 43922 86.3966 69.4520 0001969 94.6348 265.5073 14.34217566362980 IRIDIUM 176 1 43923U 19002B 25351.75319543 .00000844 00000+0 12987-3 0 9991 2 43923 86.6086 69.4153 0002337 95.6941 264.4543 14.72254423372558 IRIDIUM 168 1 43924U 19002C 25351.73146469 .00000076 00000+0 20103-4 0 9992 2 43924 86.3965 69.5268 0002063 98.8416 261.3013 14.34214924362960 IRIDIUM 173 1 43925U 19002D 25351.71877814 .00000249 00000+0 81747-4 0 9999 2 43925 86.3963 69.4283 0002057 102.0024 258.1403 14.34219868362948 IRIDIUM 169 1 43926U 19002E 25351.78124453 .00000332 00000+0 10202-3 0 9991 2 43926 86.4225 101.0540 0002262 125.3220 234.8190 14.38608956364146 IRIDIUM 172 1 43927U 19002F 25351.71243609 .00000209 00000+0 67726-4 0 9997 2 43927 86.3964 69.4383 0001948 93.3321 266.8098 14.34215124362950 IRIDIUM 175 1 43928U 19002G 25351.54456706 .00000796 00000+0 12220-3 0 9992 2 43928 86.1499 11.6362 0003220 87.4589 272.6997 14.72244120372519 IRIDIUM 171 1 43929U 19002H 25351.76318653 -.00000280 00000+0 -10719-3 0 9996 2 43929 86.3971 69.7035 0002277 98.3672 261.7782 14.34215182362955 IRIDIUM 170 1 43930U 19002J 25351.75937800 .00000857 00000+0 13201-3 0 9995 2 43930 86.6084 69.4163 0002312 90.9177 269.2305 14.72249285372567 IRIDIUM 167 1 43931U 19002K 25351.75684169 .00000177 00000+0 56286-4 0 9999 2 43931 86.3965 69.4408 0002522 103.5556 256.5921 14.34217815362957 IRIDIUM 181 1 56726U 23068S 25351.87943202 .00000347 00000+0 97032-4 0 9994 2 56726 86.4515 132.5793 0002363 83.9732 276.1738 14.43310633136285 IRIDIUM 177 1 56727U 23068T 25351.67708510 .00001080 00000+0 13873-3 0 9999 2 56727 86.1965 54.9852 0002244 85.3383 274.8094 14.80219709139513 IRIDIUM 174 1 56728U 23068U 25351.74700308 .00000554 00000+0 84032-4 0 9996 2 56728 86.6095 69.5503 0002073 89.7988 270.3467 14.72242634139325 IRIDIUM 178 1 56729U 23068V 25351.80133141 .00001260 00000+0 16234-3 0 9992 2 56729 86.6542 101.1845 0002510 96.1918 263.9589 14.80249429139530 IRIDIUM 179 1 56730U 23068W 25351.86359923 .00001208 00000+0 15554-3 0 9994 2 56730 86.6783 109.5969 0002400 89.0531 271.0966 14.80237494139547